Regional Weather Roundup
Issued by NWS Newport/Morehead, NC

Current Version | Previous Version | Graphics & Text | Print | Product List | Glossary On
Versions: 1 2 3 4 5 6 7 8 9 10 11 12 13 14 15 16 17 18 19 20 21 22 23 24 25 26 27 28 29 30 31 32 33 34 35 36 37 38 39 40 41 42 43 44 45 46 47 48 49 50
000 ASUS42 KMHX 240913 RWRMHX WEATHER ROUNDUP FOR EASTERN NORTH CAROLINA NATIONAL WEATHER SERVICE NEWPORT/MOREHEAD CITY NC 500 AM EDT MON JUL 24 2017 NOTE: "FAIR" INDICATES FEW OR NO CLOUDS BELOW 12,000 FEET WITH NO SIGNIFICANT WEATHER AND/OR OBSTRUCTIONS TO VISIBILITY NCZ015>017-031-032-045>047-102-103-241000- NORTH COAST CITY SKY/WX TMP DP RH WIND PRES REMARKS EDENTON CLOUDY 76 73 87 W7 29.87R ELIZABETH CITY MOCLDY 73 73 100 SW6 29.86R KITTY HAWK CLOUDY 77 72 84 W5 29.85R MANTEO CLOUDY 77 74 88 NW8 29.87R $$ NCZ045>047-081-094-103-104-241000- CENTRAL COAST CITY SKY/WX TMP DP RH WIND PRES REMARKS FRISCO MOCLDY 78 75 90 SW12 29.88R $$ NCZ095-097-098-100-101-241000- SOUTHERN COAST CITY SKY/WX TMP DP RH WIND PRES REMARKS BEAUFORT MOCLDY 81 78 91 SW17G25 29.90R CEDAR ISLAND NOT AVBL JACKSONVILLE CLOUDY 79 77 94 SW7 29.89R PINEY ISLAND PTSUNNY N/A N/A N/A SW16G24 29.88R WILMINGTON MOCLDY 79 76 90 SW8 29.90R $$ NCZ011>013-027>030-043-044-078>080-089-090>093-098-241000- COASTAL PLAIN CITY SKY/WX TMP DP RH WIND PRES REMARKS AHOSKIE N/A 68 68 99 CALM 29.86R FOG CLINTON PTCLDY 72 72 100 CALM 29.90R ELIZABETHTOWN NOT AVBL GOLDSBORO PTCLDY 74 74 100 SW7 29.87R GREENVILLE CLEAR 72 72 100 SW3 29.90R HAVELOCK CLOUDY 80 75 84 SW13 29.90R KENANSVILLE NOT AVBL KINSTON PTCLDY 74 72 93 SW6 29.89R NEW BERN CLOUDY 78 76 93 SW8 29.90R RICHLANDS MOCLDY 77 75 93 SW8 29.90R ROCKY MOUNT MOCLDY 72 72 100 S6 29.87R WASHINGTON CLOUDY 72 71 96 S3 29.88R WHITEVILLE CLEAR 75 73 94 CALM 29.90R $$ AMZ130-135-150-152-154-156-158-170-250-252-270-ANZ085-086-088-633-658-670-241000- MARINE OBSERVATIONS STATION/POSITION TIME TEMP WIND PRES WAVE SWELL AIR SEA DIR/SP/G HT/PER HT/PER (UTC) (F) (DEG/KT/KT) (MB) (FT/S) (FT/S) CHESAPEAKE LIGHT NOT AVBL 64 E VA BEACH 0850 79 79 260/ 14/ 16 1011.1 4/ 6 2/ 7 DUCK 0848 77 61 260/ 12/ 15 1010.8 2 E DUCK 0900 63 N/A 2/10 OREGON INLET 0848 220/ 23/ 26 N/A 13E OREGON INLT 0848 74 N/A 4/ 7 2/ 7 HATTERAS CG 0848 78 78 220/ 11/ 16 1011.5 DIAMOND BUOY 0850 82 84 220/ 23/ 29 1011.3 8/ 7 CAPE LOOKOUT 0900 81 230/ 15/ 19 1012.1 BEAUFORT LAB 0848 81 80 230/ 7/ 14 1011.6 30 SE NEW RVR IN 0808 81 81 230/ 21/ 29 1012.0 30 SE NEW RVR IN 0843 81 N/A 8/ 7 2/11 27 SE WRIGHTSVLE 0808 82 83 220/ 19/ 27 1011.9 5 SE WRIGHTSVLE 0808 81 80 220/ 16/ 23 1012.2 225 S CAPE HAT 0850 80 83 230/ 21/ 29 1015.9 5/ 6 2/ 9 41 SE CHARLESTON 0850 82 83 230/ 19/ 25 1013.0 6/ 6 2/ 9 $$

USA.gov is the U.S. government's official web portal to all federal, state and local government web resources and services.